Home   Weather   Leipzig   Past weeks

Flag for Germany Past Weather in Leipzig, Saxony, Germany — Yesterday and Last 2 Weeks

Now
70 °F

Clear.


Feels Like: 70 °F
Forecast: 56 / 71 °F
Wind: 7 mph from South

Location: Leipzig-Schkeuditz

Current Time: May 30, 2017 at 3:38:20 am

Latest Report: May 30, 2017 at 2:50 am


Visibility: 10 mi

Pressure: 29.86 "Hg

Humidity: 73%

Dew Point: 61 °F

Location of LeipzigLocation

Past Weather in Leipzig — Graph

°F

Leipzig Temperature Yesterday

Maximum temperature yesterday: 88 °F (at 4:50 pm)
Minimum temperature yesterday: 63 °F (at 3:50 am)
Average temperature yesterday: 75 °F

High & Low Weather Summary for the Past Weeks

 TemperatureHumidityPressure
High88 °F (May 29, 4:50 pm)100% (May 15, 4:50 am)30.42 "Hg (May 15, 4:50 am)
Low45 °F (May 25, 1:50 am)25% (May 28, 1:20 pm)29.65 "Hg (May 19, 5:20 pm)
Average64 °F65%30.12 "Hg
* Reported May 15 2:20 am — May 30 2:20 am, Leipzig. Weather by CustomWeather, © 2017

Note: Actual official high and low records may vary slightly from our data, if they occured in-between our weather recording intervals... More about our weather records

Advertising

Leipzig Weather History for the Previous 24 Hours

Scroll right to see more
 ConditionsComfort  
Time TempWeatherWind HumidityBarometerVisibility
2:20 am
Tue, May 30
70 °FClear.8 mph78%29.86 "Hg10 mi
1:50 am70 °FPassing clouds.8 mph73%29.86 "HgN/A
1:20 am72 °FClear.7 mph69%29.86 "Hg10 mi
12:50 am72 °FPassing clouds.8 mph69%29.86 "HgN/A
12:20 am72 °FClear.7 mph69%29.86 "Hg10 mi
11:50 pm
Mon, May 29
73 °FClear.7 mph65%29.89 "Hg10 mi
11:20 pm73 °FClear.7 mph65%29.89 "Hg10 mi
10:50 pm73 °FClear.6 mph65%29.89 "Hg10 mi
10:20 pm73 °FClear.6 mph65%29.89 "Hg10 mi
9:50 pm75 °FClear.7 mph61%29.89 "Hg10 mi
9:20 pm77 °FClear.3 mph57%29.89 "Hg10 mi
8:50 pm81 °FSunny.3 mph51%29.86 "Hg10 mi
8:20 pm82 °FSunny.2 mph45%29.86 "Hg10 mi
7:50 pm86 °FSunny.3 mph43%29.86 "Hg10 mi
7:20 pm86 °FPassing clouds.6 mph35%29.89 "HgN/A
6:50 pm86 °FPassing clouds.6 mph35%29.89 "HgN/A
6:20 pm86 °FPassing clouds.7 mph35%29.89 "HgN/A
5:50 pm86 °FPassing clouds.7 mph35%29.89 "HgN/A
5:20 pm88 °FPassing clouds.6 mph35%29.89 "HgN/A
4:50 pm88 °FPassing clouds.7 mph38%29.89 "HgN/A
4:20 pm86 °FPassing clouds.8 mph40%29.92 "HgN/A
3:50 pm86 °FSunny.5 mph46%29.92 "Hg10 mi
3:20 pm86 °FPassing clouds.5 mph43%29.92 "HgN/A
2:50 pm84 °FPartly sunny.3 mph48%29.92 "HgN/A
2:20 pm84 °FScattered clouds.7 mph51%29.95 "HgN/A
1:50 pm82 °FScattered clouds.6 mph51%29.95 "HgN/A
1:20 pm82 °FPartly sunny.5 mph51%29.95 "HgN/A
12:50 pm82 °FSunny.5 mph55%29.95 "Hg10 mi
12:20 pm81 °FPassing clouds.6 mph58%29.95 "HgN/A
11:50 am79 °FSunny.6 mph58%29.95 "Hg10 mi
10:50 am77 °FSunny.2 mph57%29.95 "Hg10 mi
10:20 am75 °FSunny.5 mph61%29.98 "Hg10 mi
9:50 am73 °FScattered clouds.3 mph69%29.98 "HgN/A
9:20 am73 °FSunny.2 mph69%29.98 "Hg10 mi
8:50 am73 °FSunny.1 mph69%29.98 "Hg10 mi
8:20 am72 °FPassing clouds.3 mph73%29.98 "HgN/A
7:50 am68 °FSunny.6 mph83%29.98 "Hg10 mi
7:20 am68 °FSunny.5 mph83%29.98 "Hg10 mi
6:50 am68 °FPassing clouds.3 mph83%29.98 "HgN/A
6:20 am66 °FSunny.2 mph88%29.98 "Hg10 mi
5:50 am63 °FSunny.2 mph88%29.95 "Hg10 mi
5:20 am63 °FPassing clouds.5 mph88%29.95 "HgN/A
4:50 am63 °FClear.3 mph88%29.95 "Hg10 mi
4:20 am63 °FPassing clouds.5 mph88%29.98 "HgN/A
3:50 am63 °FClear.5 mph88%29.98 "Hg10 mi
3:20 am64 °FPassing clouds.3 mph83%29.98 "HgN/A
Weather by CustomWeather, © 2017

See weather overviewHow to use our weather pages